| |
Missouri Department of Transportation

Social Media Facebook Twitter Flickr Instagram YouTube RSS

Current AWOS Information

 
AWOS Home - General Info for all Airports
Current AWOS for all Airports - Current METAR for all Airports
Glossary - Disclaimer - Other Links


MEXICO--MEXICO MEMORIAL--KMYJ
 
Recent AWOS History
 
09/29/16     11:52 PM CDT      04:52 GMT
Air Temperature 51°F (11°C ) 1st Cloud Layer Scattered at 5,000 feet
Dew Point 48°F (9°C) 2nd Cloud Layer  
Barometric Pressure 30.19 in Hg. 3rd Cloud Layer  
Wind Speed 7 mph (6 knots) Density Altitude  
Peak Wind Gusts   Variable Wind Directions  
Wind Direction Quadrant(310°) Variable Visibility  
Visibility 10 statute miles  

Thunderstorm and Precipitation Identification:  Missing
Thunderstorm Remarks: 

Current METAR Record: METAR KMYJ 290459Z AUTO 32005KT 10SM SCT050 11/09 A3019 RMK AO2 PWINO

 

 

 

About Us
How Do I...
Contact Us
Missouri Department of Transportation
Central Office
105 W. Capitol Avenue
Jefferson City, MO 65102
1-888-ASK-MODOT (275-6636)
1-866-831-6277 (Motor Carrier Services)
Driver's License Offices
horz_bar
| | |
Missouri State Government
© 2013 Missouri Department of Transportation. All Rights Reserved.   Privacy Policy.
 
 
 
 
RSS FeedYoutubeBlogFlickrTwitter Facebook